Showing default

BB 1, 56171

Orbit data source: Space-Track

BB 1, 56171 is a payload satellite owned by SDA (US) in LEO that was launched on Sun, 02 Apr 2023 UTC via an FALCON 9 launch vehicle from the Air Force Western Test Range (AFWTR). Payload-class satellites include a variety of spacecraft equipped with specific instruments for various scientific and technological missions. These include communications satellites like Starlink; space stations such as the ISS; scientific satellites like the Hubble; Earth observation satellites from companies like Planet Labs, Umbra, and HawkEye 360; GPS; miniature CubeSats for education and research; and military/defense satellites.

Loading next visibility...
Identifier
56171, 2023-050K
Orbit
LEO
Country
Flag of USUS
Related business
Manufacturer
SPX/LEIDOS
Mission
Operational Defense Early Warn
Bus & Motor
STARSHIELD?, Unknown motor
Mass
~800 kg wet, ~800 kg dry
Launch date (UTC)
2023-04-02 (3 years ago)
Launch vehicle
FALCON 9
Launch site
Air Force Western Test Range (AFWTR)
Object type
Payload
Rocket body
Debris
Shape & HBR
Box + 1 Pan, 4.5 m
Radar Cross Section
12.397 m², Large (>1 m²)

Expand to show TLE details & history
Last TLE update: 6 days ago

TLE from 6 days ago
0 BB 1
1 56171U 23050K   26167.05370410  .00000072  00000-0  54190-4 0  9994
2 56171  81.0038  81.7178 0014793 312.0925  47.8972 13.84458346161382
Epoch: 2026-06-16T01:17Z
TLE epoch observation values (Epoch: 2026-06-16T01:17:20.034Z)
Latitude
-0.00002°
Longitude
158.05307°
Altitude
943.714 km
Speed
7.384 km/s
True Right ascension
05h 26m 52s
True Declination
0° 00' 00"
Sunlit
Object was in daylight at epoch
Visualization orbit readout
Latitude
Unknown
Longitude
Unknown
Altitude
Unknown
Speed
Unknown
Apparent Right ascension
Unknown
Apparent Declination
Unknown
Sunlit
N/A
Visualization observer readout
Local Sidereal Time
23:26:57
Azimuth
Unknown
Elevation
Unknown
Doppler factor
Unknown
Orbital elements
Apogee altitude
956.17 km
Perigee altitude
934.502 km
Semi-major axis
7,323.473 km
Eccentricity
0.00148
Inclination
81.0038°
RAAN
81.7178°
Arg. of periapsis
312.0925°
True anomaly
48.02313°
Mean anomaly
47.8972°
Eccentric anomaly
47.96015°
Mean motion
3.46312 °/min
Orbital period
103.95 mins
BSTAR
0.00005419
Loading maneuver chart data...
Computing Atmospheric mass density...
Loading historical data...
Loading historical data...
Loading historical data...
Loading historical data...
Loading historical data...
Loading historical data...
Loading historical data...

Documentation

Showing up to 5 results
|